Tracking 19794 objects as of 21-Jul-2019
HD Live streaming from Space Station
objects crossing your sky now

COSMOS 1275 DEB

Track COSMOS 1275 DEB now!
10-day predictions


NORAD ID: 42101
Int'l Code: 1981-053PM
Perigee: 779.9 km
Apogee: 792.4 km
Inclination: 82.8 °
Period: 100.4 minutes
Semi major axis: 7157 km
RCS: Unknown
Launch date: June 4, 1981
Source: Commonwealth of Independent States (former USSR) (CIS)
Launch site: PLESETSK MISSILE AND SPACE COMPLEX (PKMTR)

Note: This is SATELLITE DEBRIS
aabbcc
Your satellite tracking list
Your tracking list is empty




NASA's NSSDC Master Catalog

Two Line Element Set (TLE):
1 42101U 81053PM  19165.72190135  .00001021  00000-0  36103-3 0  9995
2 42101  82.7820 275.5914 0008724 142.2181 217.9622 14.33801848751844
Source of the keplerian elements: AFSPC